Location: Holcomb Observatory and Planetarium
(39.8415°N, 86.1714°W)
Time: 12:30:22
(UTC-05:00)

Hubble Space Telescope - Visible Passes

Search period start: 22 February 2017 00:00
Search period end: 04 March 2017 00:00
Orbit: 538 x 542 km, 28.5° (Epoch: 21 February)

Date Brightness Start Highest point End Pass type
(mag) Time Alt. Az. Time Alt. Az. Time Alt. Az.
26 Feb 3.2 19:08:56 10° S 19:09:34 10° SSE 19:10:12 10° SSE visible
26 Feb 3.3 20:47:24 10° SW 20:48:14 13° SSW 20:48:14 13° SSW visible
27 Feb 3.0 20:37:16 10° SW 20:38:56 15° SSW 20:38:56 15° SSW visible
28 Feb 2.8 20:27:12 10° SW 20:29:36 17° S 20:29:36 17° S visible
01 Mar 2.8 20:17:10 10° SW 20:19:47 16° S 20:20:16 16° S visible
02 Mar 2.9 20:07:12 10° SW 20:09:41 15° S 20:10:57 14° SSE visible
03 Mar 3.1 19:57:19 10° SW 19:59:35 14° S 20:01:38 11° SSE visible
